Simultaneous Nadir Overpasses (SNOs) Predictions

Prediction of SNOs between METOP-A and TERRA Satellite Orbit:

Table of predicted SNOs for the next 14.0 days since TLE Epoch: 7/28/2017
Index Date (METOP-A) Time (METOP-A) Lat,Lon (METOP-A) SZA (METOP-A ) Date (TERRA) Time (TERRA) Lat,Lon (TERRA) SZA (TERRA ) Distance(km) Time Diff (sec)
1 07/29/2017 04:18:37 81.35, 163.53 65.45 07/29/2017 04:18:56 81.35, 163.33 65.43 3.32 19
2 07/29/2017 05:09:18 -81.35, -29.16 114.55 07/29/2017 05:08:23 -81.35, -29.05 114.56 1.88 55
3 07/31/2017 23:52:57 81.35,-129.84 66.16 07/31/2017 23:53:12 81.36,-130.04 66.15 3.31 15
4 08/01/2017 00:43:38 -81.35, 37.52 113.83 08/01/2017 00:42:39 -81.36, 37.60 113.85 1.39 59
5 08/03/2017 19:27:19 81.35, -64.01 66.82 08/03/2017 19:27:29 81.35, -63.82 66.85 3.16 10
6 08/03/2017 20:17:59 -81.35, 103.78 113.12 08/03/2017 20:16:56 -81.35, 103.82 113.15 0.94 63
7 08/06/2017 15:01:38 81.35, 2.60 67.61 08/06/2017 15:01:44 81.35, 2.74 67.63 2.44 6
8 08/06/2017 15:52:18 -81.35, 170.43 112.32 08/06/2017 15:51:11 -81.35, 170.40 112.36 0.51 67
9 08/09/2017 10:35:58 81.35, 69.20 68.44 08/09/2017 10:36:00 81.36, 69.28 68.45 1.49 2




NCC Satellite Simultaneous Nadir Overpasses (SNOs) Prediction Service
